Private Wetterstation Wechselburg
Wetterdaten: Donnerstag, 12.03.2020
Datum Zeit Temp. +2m Bodentemp. Temp.+5cm Temp. Wind Windchill X Diff Temp. Feuchte +2m Feuchte +5cm Luftdruck Regen Wind Richtung Richtung Sonnenschein Taupunkt Windchill Windben
12.03.2020 00:00 10,1 C 9,8 C 9,9 C 9,9 C 9,6 C 0,0 C 88 % 90 % 1013,8 hPa 0,0 l/m 7,1 km/h (2 Bft) SO 135 0 min 8,2 C 8,7 C 11,6 km/h (2 Bft)
12.03.2020 00:05 10,0 C 9,8 C 10,1 C 10,1 C 10,1 C 0,1 C 88 % 91 % 1013,8 hPa 0,0 l/m 6,4 km/h (2 Bft) S-SW 202 0 min 8,1 C 10,1 C 13,8 km/h (3 Bft)
12.03.2020 00:10 10,0 C 9,8 C 10,1 C 10,2 C 10,2 C 0,2 C 88 % 91 % 1013,8 hPa 0,0 l/m 6,3 km/h (2 Bft) SW 225 0 min 8,1 C 10,2 C 9,2 km/h (2 Bft)
12.03.2020 00:15 10,1 C 9,9 C 10,2 C 10,2 C 10,2 C 0,1 C 88 % 91 % 1013,8 hPa 0,0 l/m 5,8 km/h (2 Bft) O-NO 67 0 min 8,2 C 10,2 C 6,4 km/h (2 Bft)
12.03.2020 00:20 10,1 C 9,9 C 10,2 C 10,3 C 10,3 C 0,2 C 88 % 91 % 1013,4 hPa 0,0 l/m 5,5 km/h (1 Bft) S 180 0 min 8,2 C 10,3 C 9,7 km/h (2 Bft)
12.03.2020 00:25 10,1 C 10,0 C 10,2 C 10,6 C 10,6 C 0,5 C 88 % 91 % 1013,4 hPa 0,0 l/m 4,3 km/h (1 Bft) S-SO 157 0 min 8,2 C 10,6 C 14,3 km/h (3 Bft)
12.03.2020 00:30 10,1 C 9,9 C 10,1 C 10,6 C 10,6 C 0,5 C 88 % 91 % 1013,4 hPa 0,0 l/m 3,4 km/h (1 Bft) S 180 0 min 8,2 C 10,6 C 5,8 km/h (2 Bft)
12.03.2020 00:35 10,0 C 9,9 C 10,0 C 10,5 C 10,5 C 0,5 C 88 % 91 % 1013,4 hPa 0,0 l/m 3,7 km/h (1 Bft) S-SO 157 0 min 8,1 C 10,5 C 10,8 km/h (2 Bft)
12.03.2020 00:40 10,0 C 9,9 C 9,9 C 10,3 C 10,3 C 0,3 C 88 % 90 % 1013,1 hPa 0,0 l/m 4,5 km/h (1 Bft) S-SO 157 0 min 8,1 C 10,3 C 3,7 km/h (1 Bft)
12.03.2020 00:45 10,0 C 9,9 C 9,9 C 10,2 C 10,2 C 0,2 C 88 % 90 % 1013,1 hPa 0,0 l/m 4,5 km/h (1 Bft) SO 135 0 min 8,1 C 10,2 C 7,6 km/h (2 Bft)
12.03.2020 00:50 10,0 C 9,8 C 10,0 C 10,0 C 9,9 C 0,0 C 88 % 91 % 1013,1 hPa 0,0 l/m 5,3 km/h (1 Bft) SO 135 0 min 8,1 C 9,6 C 11,6 km/h (2 Bft)
12.03.2020 00:55 10,0 C 9,8 C 10,0 C 10,0 C 9,9 C 0,0 C 88 % 91 % 1013,1 hPa 0,0 l/m 5,8 km/h (2 Bft) O-NO 67 0 min 8,1 C 9,4 C 9,0 km/h (2 Bft)
12.03.2020 01:00 10,1 C 9,8 C 10,1 C 10,2 C 10,2 C 0,1 C 88 % 91 % 1012,8 hPa 0,0 l/m 4,8 km/h (1 Bft) W 270 0 min 8,2 C 10,2 C 5,8 km/h (2 Bft)
12.03.2020 01:05 10,2 C 9,8 C 10,2 C 10,3 C 10,3 C 0,1 C 88 % 90 % 1012,8 hPa 0,0 l/m 4,8 km/h (1 Bft) S-SO 157 0 min 8,3 C 10,3 C 5,3 km/h (1 Bft)
12.03.2020 01:10 10,2 C 9,8 C 10,2 C 10,3 C 10,3 C 0,1 C 88 % 90 % 1012,8 hPa 0,0 l/m 5,5 km/h (1 Bft) O-SO 112 0 min 8,3 C 10,3 C 5,3 km/h (1 Bft)
12.03.2020 01:15 10,4 C 9,7 C 10,3 C 10,5 C 10,5 C 0,1 C 88 % 90 % 1012,8 hPa 0,0 l/m 4,8 km/h (1 Bft) W-SW 247 0 min 8,5 C 10,5 C 9,2 km/h (2 Bft)
12.03.2020 01:20 10,4 C 9,7 C 10,4 C 10,6 C 10,6 C 0,2 C 88 % 90 % 1012,4 hPa 0,0 l/m 4,8 km/h (1 Bft) S-SO 157 0 min 8,5 C 10,6 C 8,9 km/h (2 Bft)
12.03.2020 01:25 10,5 C 9,7 C 10,5 C 10,6 C 10,6 C 0,1 C 88 % 90 % 1012,4 hPa 0,0 l/m 5,5 km/h (1 Bft) NW 315 0 min 8,6 C 10,6 C 10,1 km/h (2 Bft)
12.03.2020 01:30 10,6 C 9,6 C 10,5 C 10,8 C 10,8 C 0,2 C 88 % 89 % 1012,4 hPa 0,0 l/m 5,3 km/h (1 Bft) SO 135 0 min 8,7 C 10,8 C 7,6 km/h (2 Bft)
12.03.2020 01:35 10,8 C 9,6 C 10,6 C 10,9 C 10,9 C 0,1 C 88 % 89 % 1012,4 hPa 0,0 l/m 5,5 km/h (1 Bft) SO 135 0 min 8,9 C 10,9 C 16,4 km/h (3 Bft)
12.03.2020 01:40 10,9 C 9,6 C 10,7 C 10,9 C 10,9 C 0,0 C 88 % 89 % 1012,2 hPa 0,0 l/m 5,8 km/h (2 Bft) O-NO 67 0 min 9,0 C 10,9 C 10,5 km/h (2 Bft)
12.03.2020 01:45 11,1 C 9,6 C 10,7 C 11,0 C 10,9 C 0,0 C 88 % 88 % 1012,2 hPa 0,0 l/m 5,8 km/h (2 Bft) NW 315 0 min 9,2 C 10,9 C 6,3 km/h (2 Bft)
12.03.2020 01:50 11,2 C 9,6 C 10,8 C 11,1 C 10,9 C 0,0 C 88 % 88 % 1012,2 hPa 0,0 l/m 6,0 km/h (2 Bft) S 180 0 min 9,3 C 10,9 C 11,6 km/h (2 Bft)
12.03.2020 01:55 11,4 C 9,6 C 10,8 C 11,2 C 10,9 C 0,0 C 87 % 87 % 1012,2 hPa 0,0 l/m 6,4 km/h (2 Bft) S-SO 157 0 min 9,3 C 10,9 C 7,7 km/h (2 Bft)
12.03.2020 02:00 11,5 C 9,6 C 10,8 C 11,4 C 11,1 C 0,0 C 87 % 87 % 1011,8 hPa 0,0 l/m 6,4 km/h (2 Bft) NW 315 0 min 9,4 C 11,1 C 5,0 km/h (1 Bft)
12.03.2020 02:05 11,6 C 9,6 C 10,8 C 11,4 C 11,1 C 0,0 C 87 % 87 % 1011,8 hPa 0,0 l/m 6,4 km/h (2 Bft) W-SW 247 0 min 9,5 C 11,1 C 10,0 km/h (2 Bft)
12.03.2020 02:10 11,6 C 9,6 C 10,9 C 11,5 C 11,2 C 0,0 C 87 % 87 % 1011,8 hPa 0,0 l/m 6,4 km/h (2 Bft) S-SO 157 0 min 9,5 C 11,2 C 6,4 km/h (2 Bft)
12.03.2020 02:15 11,7 C 9,6 C 10,9 C 11,5 C 11,2 C 0,0 C 87 % 87 % 1011,8 hPa 0,0 l/m 6,4 km/h (2 Bft) W-SW 247 0 min 9,6 C 11,2 C 9,2 km/h (2 Bft)
12.03.2020 02:20 11,7 C 9,6 C 10,9 C 11,6 C 11,4 C 0,0 C 87 % 87 % 1011,2 hPa 0,0 l/m 6,3 km/h (2 Bft) W-NW 292 0 min 9,6 C 11,4 C 9,2 km/h (2 Bft)
12.03.2020 02:25 11,9 C 9,6 C 11,0 C 11,6 C 11,1 C 0,0 C 87 % 86 % 1011,2 hPa 0,0 l/m 7,4 km/h (2 Bft) W-NW 292 0 min 9,8 C 11,1 C 18,2 km/h (3 Bft)
12.03.2020 02:30 11,9 C 9,6 C 11,0 C 11,7 C 11,2 C 0,0 C 86 % 86 % 1011,2 hPa 0,0 l/m 7,4 km/h (2 Bft) O-SO 112 0 min 9,6 C 11,2 C 5,0 km/h (1 Bft)
12.03.2020 02:35 11,9 C 9,7 C 11,0 C 11,7 C 11,2 C 0,0 C 86 % 86 % 1011,2 hPa 0,0 l/m 7,4 km/h (2 Bft) SW 225 0 min 9,6 C 11,2 C 19,0 km/h (3 Bft)
12.03.2020 02:40 11,9 C 9,6 C 11,0 C 11,7 C 11,3 C 0,0 C 86 % 86 % 1011,2 hPa 0,0 l/m 6,6 km/h (2 Bft) W-SW 247 0 min 9,6 C 11,3 C 6,4 km/h (2 Bft)
12.03.2020 02:45 12,1 C 9,7 C 11,0 C 11,8 C 11,2 C 0,0 C 85 % 86 % 1011,2 hPa 0,0 l/m 7,2 km/h (2 Bft) S-SO 157 0 min 9,7 C 11,2 C 9,7 km/h (2 Bft)
12.03.2020 02:50 12,1 C 9,7 C 11,0 C 11,8 C 11,1 C 0,0 C 85 % 85 % 1011,2 hPa 0,0 l/m 7,6 km/h (2 Bft) O-NO 67 0 min 9,7 C 11,1 C 7,9 km/h (2 Bft)
12.03.2020 02:55 12,0 C 9,7 C 11,1 C 11,8 C 11,0 C 0,0 C 84 % 85 % 1011,2 hPa 0,0 l/m 8,0 km/h (2 Bft) SW 225 0 min 9,4 C 11,0 C 10,6 km/h (2 Bft)
12.03.2020 03:00 12,0 C 9,7 C 11,0 C 11,7 C 10,9 C 0,0 C 84 % 85 % 1011,2 hPa 0,0 l/m 8,7 km/h (2 Bft) S-SW 202 0 min 9,4 C 10,9 C 10,3 km/h (2 Bft)
12.03.2020 03:05 12,0 C 9,7 C 10,9 C 11,7 C 10,7 C 0,0 C 84 % 85 % 1011,2 hPa 0,0 l/m 9,0 km/h (2 Bft) S-SW 202 0 min 9,4 C 10,7 C 16,3 km/h (3 Bft)
12.03.2020 03:10 12,0 C 9,7 C 11,0 C 11,7 C 10,8 C 0,0 C 84 % 85 % 1011,2 hPa 0,0 l/m 8,5 km/h (2 Bft) S 180 0 min 9,4 C 10,8 C 13,0 km/h (3 Bft)
12.03.2020 03:15 12,1 C 9,7 C 11,1 C 11,8 C 11,1 C 0,0 C 84 % 85 % 1011,2 hPa 0,0 l/m 8,2 km/h (2 Bft) O-SO 112 0 min 9,5 C 11,1 C 8,0 km/h (2 Bft)
12.03.2020 03:20 12,1 C 9,7 C 11,2 C 11,8 C 11,1 C 0,0 C 84 % 85 % 1011,1 hPa 0,0 l/m 8,0 km/h (2 Bft) SW 225 0 min 9,5 C 11,1 C 11,4 km/h (2 Bft)
12.03.2020 03:25 12,0 C 9,7 C 11,3 C 11,9 C 11,7 C 0,0 C 84 % 84 % 1011,1 hPa 0,0 l/m 5,8 km/h (2 Bft) SW 225 0 min 9,4 C 11,7 C 5,3 km/h (1 Bft)
12.03.2020 03:30 12,1 C 9,7 C 11,3 C 12,0 C 11,7 C 0,0 C 84 % 84 % 1011,1 hPa 0,0 l/m 5,8 km/h (2 Bft) S-SO 157 0 min 9,5 C 11,7 C 16,9 km/h (3 Bft)
12.03.2020 03:35 12,0 C 9,7 C 11,4 C 11,9 C 11,7 C 0,0 C 84 % 84 % 1011,1 hPa 0,0 l/m 6,4 km/h (2 Bft) S-SO 157 0 min 9,4 C 11,7 C 7,4 km/h (2 Bft)
12.03.2020 03:40 12,1 C 9,7 C 11,4 C 12,0 C 11,8 C 0,0 C 83 % 84 % 1010,2 hPa 0,0 l/m 6,3 km/h (2 Bft) W-SW 247 0 min 9,3 C 11,8 C 4,8 km/h (1 Bft)
12.03.2020 03:45 12,1 C 9,7 C 11,4 C 12,0 C 11,9 C 0,0 C 83 % 84 % 1010,2 hPa 0,0 l/m 6,0 km/h (2 Bft) SO 135 0 min 9,3 C 11,9 C 13,5 km/h (3 Bft)
12.03.2020 03:50 12,1 C 9,7 C 11,3 C 12,1 C 12,0 C 0,0 C 83 % 84 % 1010,2 hPa 0,0 l/m 5,5 km/h (1 Bft) SW 225 0 min 9,3 C 12,0 C 5,0 km/h (1 Bft)
12.03.2020 03:55 12,1 C 9,7 C 11,4 C 12,1 C 12,0 C 0,0 C 83 % 84 % 1010,2 hPa 0,0 l/m 5,5 km/h (1 Bft) W-SW 247 0 min 9,3 C 12,0 C 9,2 km/h (2 Bft)
12.03.2020 04:00 12,1 C 9,7 C 11,4 C 12,0 C 11,9 C 0,0 C 83 % 84 % 1010,4 hPa 0,0 l/m 5,8 km/h (2 Bft) SO 135 0 min 9,3 C 11,9 C 8,2 km/h (2 Bft)
12.03.2020 04:05 12,1 C 9,7 C 11,4 C 12,0 C 11,9 C 0,0 C 82 % 84 % 1010,4 hPa 0,0 l/m 6,0 km/h (2 Bft) N 360 0 min 9,1 C 11,9 C 5,3 km/h (1 Bft)
12.03.2020 04:10 12,1 C 9,7 C 11,4 C 12,0 C 11,9 C 0,0 C 82 % 84 % 1010,4 hPa 0,0 l/m 5,6 km/h (1 Bft) O 90 0 min 9,1 C 11,9 C 7,4 km/h (2 Bft)
12.03.2020 04:15 12,1 C 9,7 C 11,3 C 12,0 C 11,9 C 0,0 C 82 % 83 % 1010,4 hPa 0,0 l/m 5,5 km/h (1 Bft) NO 45 0 min 9,1 C 11,9 C 9,7 km/h (2 Bft)
12.03.2020 04:20 12,1 C 9,7 C 11,4 C 12,0 C 11,9 C 0,0 C 82 % 84 % 1010,2 hPa 0,0 l/m 5,3 km/h (1 Bft) S-SW 202 0 min 9,1 C 11,9 C 6,1 km/h (2 Bft)
12.03.2020 04:25 12,1 C 9,7 C 11,4 C 12,1 C 12,1 C 0,0 C 82 % 83 % 1010,2 hPa 0,0 l/m 5,0 km/h (1 Bft) W-NW 292 0 min 9,1 C 12,1 C 5,6 km/h (1 Bft)
12.03.2020 04:30 12,1 C 9,7 C 11,5 C 12,1 C 12,1 C 0,0 C 82 % 83 % 1010,2 hPa 0,0 l/m 5,0 km/h (1 Bft) SO 135 0 min 9,1 C 12,1 C 12,4 km/h (3 Bft)
12.03.2020 04:35 12,1 C 9,6 C 11,5 C 12,1 C 12,1 C 0,0 C 81 % 83 % 1010,2 hPa 0,0 l/m 5,6 km/h (1 Bft) S-SO 157 0 min 8,9 C 12,1 C 4,3 km/h (1 Bft)
12.03.2020 04:40 12,1 C 9,6 C 11,5 C 12,2 C 12,2 C 0,1 C 81 % 83 % 1010,1 hPa 0,0 l/m 5,6 km/h (1 Bft) S-SO 157 0 min 8,9 C 12,2 C 11,3 km/h (2 Bft)
12.03.2020 04:45 12,2 C 9,6 C 11,5 C 12,1 C 11,9 C 0,0 C 81 % 82 % 1010,1 hPa 0,0 l/m 6,4 km/h (2 Bft) SW 225 0 min 9,0 C 11,9 C 17,4 km/h (3 Bft)
12.03.2020 04:50 12,3 C 9,6 C 11,5 C 12,2 C 11,9 C 0,0 C 80 % 82 % 1010,1 hPa 0,0 l/m 7,4 km/h (2 Bft) N-NO 22 0 min 8,9 C 11,9 C 9,3 km/h (2 Bft)
12.03.2020 04:55 12,3 C 9,6 C 11,5 C 12,2 C 11,9 C 0,0 C 80 % 82 % 1010,1 hPa 0,0 l/m 7,2 km/h (2 Bft) SO 135 0 min 8,9 C 11,9 C 4,5 km/h (1 Bft)
12.03.2020 05:00 12,3 C 9,6 C 11,4 C 12,2 C 11,9 C 0,0 C 80 % 82 % 1010,0 hPa 0,0 l/m 6,4 km/h (2 Bft) SO 135 0 min 8,9 C 11,9 C 8,2 km/h (2 Bft)
12.03.2020 05:05 12,1 C 9,6 C 11,3 C 12,0 C 11,8 C 0,0 C 79 % 82 % 1010,0 hPa 0,0 l/m 5,6 km/h (1 Bft) N 360 0 min 8,6 C 11,8 C 8,5 km/h (2 Bft)
12.03.2020 05:10 12,0 C 9,6 C 11,2 C 11,9 C 11,6 C 0,0 C 79 % 82 % 1010,0 hPa 0,0 l/m 5,6 km/h (1 Bft) O-NO 67 0 min 8,5 C 11,6 C 6,1 km/h (2 Bft)
12.03.2020 05:15 12,1 C 9,6 C 11,1 C 11,9 C 11,4 C 0,0 C 79 % 82 % 1010,0 hPa 0,0 l/m 6,3 km/h (2 Bft) S 180 0 min 8,6 C 11,4 C 20,1 km/h (4 Bft)
12.03.2020 05:20 11,9 C 9,6 C 11,0 C 11,6 C 11,1 C 0,0 C 79 % 81 % 1009,7 hPa 0,0 l/m 6,9 km/h (2 Bft) S 180 0 min 8,4 C 11,1 C 10,3 km/h (2 Bft)
12.03.2020 05:25 11,9 C 9,6 C 11,0 C 11,6 C 11,0 C 0,0 C 79 % 81 % 1009,7 hPa 0,0 l/m 7,4 km/h (2 Bft) S 180 0 min 8,4 C 11,0 C 7,7 km/h (2 Bft)
12.03.2020 05:30 11,9 C 9,5 C 11,0 C 11,6 C 11,1 C 0,0 C 79 % 81 % 1009,7 hPa 0,0 l/m 7,6 km/h (2 Bft) SO 135 0 min 8,4 C 11,1 C 8,9 km/h (2 Bft)
12.03.2020 05:35 11,9 C 9,5 C 11,1 C 11,6 C 11,1 C 0,0 C 79 % 81 % 1009,7 hPa 0,0 l/m 7,4 km/h (2 Bft) O-SO 112 0 min 8,4 C 11,1 C 14,5 km/h (3 Bft)
12.03.2020 05:40 11,9 C 9,5 C 11,0 C 11,6 C 11,1 C 0,0 C 79 % 81 % 1009,4 hPa 0,0 l/m 7,7 km/h (2 Bft) S-SO 157 0 min 8,4 C 11,1 C 12,6 km/h (3 Bft)
12.03.2020 05:45 11,9 C 9,5 C 10,9 C 11,6 C 10,9 C 0,0 C 79 % 81 % 1009,4 hPa 0,0 l/m 7,6 km/h (2 Bft) N 360 0 min 8,4 C 10,9 C 15,1 km/h (3 Bft)
12.03.2020 05:50 11,8 C 9,5 C 10,9 C 11,5 C 10,9 C 0,0 C 78 % 81 % 1009,4 hPa 0,0 l/m 7,4 km/h (2 Bft) SO 135 0 min 8,1 C 10,9 C 11,9 km/h (2 Bft)
12.03.2020 05:55 11,7 C 9,5 C 10,7 C 11,4 C 10,8 C 0,0 C 78 % 81 % 1009,4 hPa 0,0 l/m 7,1 km/h (2 Bft) S 180 0 min 8,0 C 10,8 C 7,1 km/h (2 Bft)
12.03.2020 06:00 11,7 C 9,5 C 10,7 C 11,4 C 10,8 C 0,0 C 78 % 81 % 1009,4 hPa 0,0 l/m 6,6 km/h (2 Bft) SO 135 0 min 8,0 C 10,8 C 11,9 km/h (2 Bft)
12.03.2020 06:05 11,7 C 9,5 C 10,8 C 11,4 C 10,7 C 0,0 C 78 % 80 % 1009,4 hPa 0,0 l/m 6,6 km/h (2 Bft) S-SO 157 0 min 8,0 C 10,7 C 8,5 km/h (2 Bft)
12.03.2020 06:10 11,6 C 9,5 C 10,8 C 11,3 C 10,7 C 0,0 C 78 % 80 % 1009,4 hPa 0,0 l/m 6,8 km/h (2 Bft) O-NO 67 0 min 7,9 C 10,7 C 5,6 km/h (1 Bft)
12.03.2020 06:15 11,6 C 9,5 C 10,8 C 11,3 C 10,8 C 0,0 C 78 % 80 % 1009,4 hPa 0,0 l/m 6,4 km/h (2 Bft) N-NO 22 0 min 7,9 C 10,8 C 10,0 km/h (2 Bft)
12.03.2020 06:20 11,7 C 9,5 C 10,7 C 11,4 C 10,8 C 0,0 C 78 % 80 % 1009,4 hPa 0,0 l/m 6,3 km/h (2 Bft) S 180 0 min 8,0 C 10,8 C 5,8 km/h (2 Bft)
12.03.2020 06:25 11,7 C 9,5 C 10,7 C 11,4 C 10,8 C 0,0 C 77 % 80 % 1009,4 hPa 0,0 l/m 7,1 km/h (2 Bft) N-NO 22 0 min 7,8 C 10,8 C 21,9 km/h (4 Bft)
12.03.2020 06:30 11,7 C 9,5 C 10,8 C 11,4 C 10,8 C 0,0 C 77 % 79 % 1009,4 hPa 0,0 l/m 7,1 km/h (2 Bft) W-SW 247 0 min 7,8 C 10,8 C 15,3 km/h (3 Bft)
12.03.2020 06:35 11,7 C 9,5 C 10,9 C 11,5 C 11,1 C 0,0 C 77 % 79 % 1009,4 hPa 0,0 l/m 6,4 km/h (2 Bft) S-SO 157 0 min 7,8 C 11,1 C 12,7 km/h (3 Bft)
12.03.2020 06:40 11,7 C 9,5 C 10,8 C 11,5 C 11,1 C 0,0 C 77 % 79 % 1009,4 hPa 0,0 l/m 7,6 km/h (2 Bft) S-SO 157 0 min 7,8 C 11,1 C 9,8 km/h (2 Bft)
12.03.2020 06:45 11,7 C 9,5 C 10,9 C 11,5 C 11,2 C 0,0 C 77 % 79 % 1009,4 hPa 0,0 l/m 6,9 km/h (2 Bft) SO 135 0 min 7,8 C 11,2 C 7,4 km/h (2 Bft)
12.03.2020 06:50 11,7 C 9,5 C 10,8 C 11,6 C 11,4 C 0,0 C 77 % 79 % 1009,4 hPa 0,0 l/m 6,3 km/h (2 Bft) S 180 0 min 7,8 C 11,4 C 7,6 km/h (2 Bft)
12.03.2020 06:55 11,6 C 9,5 C 10,7 C 11,5 C 11,4 C 0,0 C 76 % 80 % 1009,4 hPa 0,0 l/m 6,8 km/h (2 Bft) SO 135 0 min 7,5 C 11,4 C 5,5 km/h (1 Bft)
12.03.2020 07:00 11,7 C 9,4 C 10,7 C 12,3 C 12,3 C 0,6 C 77 % 80 % 1009,2 hPa 0,0 l/m 6,6 km/h (2 Bft) O-NO 67 0 min 7,8 C 12,3 C 6,8 km/h (2 Bft)
12.03.2020 07:05 11,7 C 9,4 C 10,7 C 13,3 C 13,3 C 1,6 C 77 % 79 % 1009,2 hPa 0,0 l/m 6,6 km/h (2 Bft) SO 135 5 min 7,8 C 13,3 C 9,3 km/h (2 Bft)
12.03.2020 07:10 11,6 C 9,4 C 10,7 C 14,0 C 14,0 C 2,4 C 77 % 79 % 1009,2 hPa 0,0 l/m 6,1 km/h (2 Bft) S 180 5 min 7,7 C 14,0 C 8,9 km/h (2 Bft)
12.03.2020 07:15 11,6 C 9,4 C 10,7 C 12,9 C 12,9 C 1,3 C 77 % 79 % 1009,2 hPa 0,0 l/m 5,8 km/h (2 Bft) S-SO 157 5 min 7,7 C 12,9 C 10,1 km/h (2 Bft)
12.03.2020 07:20 11,7 C 9,4 C 10,7 C 13,3 C 13,3 C 1,6 C 77 % 79 % 1008,5 hPa 0,0 l/m 5,8 km/h (2 Bft) SO 135 5 min 7,8 C 13,3 C 8,9 km/h (2 Bft)
12.03.2020 07:25 11,6 C 9,4 C 10,7 C 13,3 C 13,3 C 1,7 C 76 % 79 % 1008,5 hPa 0,0 l/m 6,3 km/h (2 Bft) S 180 5 min 7,5 C 13,3 C 7,2 km/h (2 Bft)
12.03.2020 07:30 11,6 C 9,4 C 10,8 C 13,8 C 13,8 C 2,2 C 76 % 79 % 1008,5 hPa 0,0 l/m 5,8 km/h (2 Bft) NO 45 5 min 7,5 C 13,8 C 3,2 km/h (1 Bft)
12.03.2020 07:35 11,7 C 9,4 C 11,0 C 14,4 C 14,4 C 2,7 C 77 % 79 % 1008,5 hPa 0,0 l/m 5,3 km/h (1 Bft) S-SO 157 5 min 7,8 C 14,4 C 7,2 km/h (2 Bft)
12.03.2020 07:40 11,9 C 9,4 C 11,2 C 14,2 C 14,2 C 2,3 C 76 % 79 % 1008,9 hPa 0,0 l/m 5,5 km/h (1 Bft) O-SO 112 5 min 7,8 C 14,2 C 8,5 km/h (2 Bft)
12.03.2020 07:45 11,9 C 9,4 C 11,3 C 13,6 C 13,6 C 1,7 C 76 % 78 % 1008,9 hPa 0,0 l/m 5,3 km/h (1 Bft) NO 45 0 min 7,8 C 13,6 C 5,0 km/h (1 Bft)
12.03.2020 07:50 11,9 C 9,4 C 11,3 C 13,3 C 13,3 C 1,4 C 76 % 78 % 1008,9 hPa 0,0 l/m 5,6 km/h (1 Bft) W-SW 247 0 min 7,8 C 13,3 C 10,6 km/h (2 Bft)
12.03.2020 07:55 12,0 C 9,3 C 11,4 C 12,3 C 12,3 C 0,3 C 76 % 78 % 1008,9 hPa 0,0 l/m 7,6 km/h (2 Bft) SO 135 0 min 7,9 C 12,3 C 9,0 km/h (2 Bft)
12.03.2020 08:00 11,9 C 9,3 C 11,3 C 12,2 C 12,2 C 0,3 C 76 % 78 % 1008,4 hPa 0,0 l/m 7,2 km/h (2 Bft) NW 315 0 min 7,8 C 12,2 C 5,5 km/h (1 Bft)
12.03.2020 08:05 12,0 C 9,3 C 11,4 C 12,3 C 12,3 C 0,3 C 76 % 78 % 1008,4 hPa 0,0 l/m 7,2 km/h (2 Bft) S 180 0 min 7,9 C 12,3 C 11,4 km/h (2 Bft)
12.03.2020 08:10 12,1 C 9,3 C 11,5 C 12,3 C 12,3 C 0,2 C 77 % 78 % 1008,4 hPa 0,0 l/m 7,4 km/h (2 Bft) S-SW 202 0 min 8,2 C 12,3 C 9,3 km/h (2 Bft)
12.03.2020 08:15 12,1 C 9,3 C 11,7 C 12,5 C 12,5 C 0,4 C 76 % 77 % 1008,4 hPa 0,0 l/m 7,2 km/h (2 Bft) SW 225 0 min 8,0 C 12,5 C 6,4 km/h (2 Bft)
12.03.2020 08:20 12,3 C 9,3 C 11,7 C 12,5 C 12,2 C 0,2 C 76 % 77 % 1008,5 hPa 0,0 l/m 8,4 km/h (2 Bft) S-SO 157 0 min 8,2 C 12,2 C 21,6 km/h (4 Bft)
12.03.2020 08:25 12,2 C 9,3 C 11,8 C 12,7 C 12,7 C 0,5 C 76 % 77 % 1008,5 hPa 0,0 l/m 8,7 km/h (2 Bft) S-SO 157 0 min 8,1 C 12,7 C 26,7 km/h (4 Bft)
12.03.2020 08:30 12,4 C 9,3 C 11,9 C 13,0 C 12,8 C 0,6 C 76 % 76 % 1008,5 hPa 0,0 l/m 10,1 km/h (2 Bft) S-SO 157 0 min 8,3 C 12,8 C 16,3 km/h (3 Bft)
12.03.2020 08:35 12,5 C 9,3 C 11,9 C 13,2 C 13,2 C 0,7 C 75 % 77 % 1008,5 hPa 0,0 l/m 9,3 km/h (2 Bft) S 180 0 min 8,2 C 13,2 C 14,0 km/h (3 Bft)
12.03.2020 08:40 12,6 C 9,3 C 12,1 C 13,4 C 13,3 C 0,8 C 75 % 77 % 1008,8 hPa 0,0 l/m 9,5 km/h (2 Bft) SW 225 0 min 8,3 C 13,3 C 13,7 km/h (3 Bft)
12.03.2020 08:45 12,7 C 9,2 C 12,9 C 13,7 C 13,5 C 1,0 C 74 % 74 % 1008,8 hPa 0,0 l/m 11,1 km/h (2 Bft) S 180 0 min 8,2 C 13,5 C 17,4 km/h (3 Bft)
12.03.2020 08:50 12,9 C 9,2 C 13,3 C 13,5 C 13,5 C 0,6 C 73 % 74 % 1008,8 hPa 0,0 l/m 11,7 km/h (2 Bft) S-SW 202 0 min 8,2 C 13,5 C 15,0 km/h (3 Bft)
12.03.2020 08:55 12,8 C 9,2 C 13,2 C 13,5 C 13,0 C 0,7 C 73 % 72 % 1008,8 hPa 0,0 l/m 11,9 km/h (2 Bft) SW 225 0 min 8,1 C 13,0 C 22,9 km/h (4 Bft)
12.03.2020 09:00 12,9 C 9,3 C 13,1 C 13,2 C 12,8 C 0,3 C 72 % 72 % 1008,9 hPa 0,0 l/m 12,2 km/h (2 Bft) S 180 0 min 8,0 C 12,8 C 16,7 km/h (3 Bft)
12.03.2020 09:05 12,9 C 9,3 C 13,2 C 13,5 C 13,4 C 0,6 C 72 % 71 % 1008,9 hPa 0,0 l/m 11,9 km/h (2 Bft) S-SW 202 0 min 8,0 C 13,4 C 18,3 km/h (3 Bft)
12.03.2020 09:10 13,1 C 9,3 C 13,0 C 13,8 C 13,8 C 0,7 C 72 % 71 % 1008,9 hPa 0,0 l/m 9,8 km/h (2 Bft) S-SO 157 0 min 8,2 C 13,8 C 7,1 km/h (2 Bft)
12.03.2020 09:15 13,1 C 9,3 C 13,1 C 14,0 C 13,9 C 0,9 C 71 % 71 % 1008,9 hPa 0,0 l/m 8,0 km/h (2 Bft) S-SW 202 0 min 8,0 C 13,9 C 4,3 km/h (1 Bft)
12.03.2020 09:20 13,1 C 9,3 C 13,3 C 14,2 C 14,2 C 1,1 C 70 % 70 % 1009,1 hPa 0,0 l/m 8,9 km/h (2 Bft) S-SO 157 0 min 7,8 C 14,2 C 18,7 km/h (3 Bft)
12.03.2020 09:25 13,1 C 9,3 C 13,5 C 14,1 C 13,6 C 1,0 C 70 % 69 % 1009,1 hPa 0,0 l/m 13,7 km/h (3 Bft) O-NO 67 0 min 7,8 C 13,6 C 29,9 km/h (5 Bft)
12.03.2020 09:30 13,2 C 9,3 C 13,9 C 14,3 C 14,2 C 1,1 C 70 % 69 % 1009,1 hPa 0,0 l/m 14,0 km/h (3 Bft) S 180 0 min 7,9 C 14,2 C 16,3 km/h (3 Bft)
12.03.2020 09:35 13,2 C 9,3 C 14,8 C 14,9 C 15,0 C 1,7 C 70 % 66 % 1009,1 hPa 0,0 l/m 13,0 km/h (3 Bft) S-SW 202 0 min 7,9 C 15,0 C 23,3 km/h (4 Bft)
12.03.2020 09:40 13,3 C 9,3 C 15,1 C 15,0 C 14,6 C 1,7 C 69 % 65 % 1008,8 hPa 0,0 l/m 14,0 km/h (3 Bft) W-SW 247 0 min 7,7 C 14,6 C 17,2 km/h (3 Bft)
12.03.2020 09:45 13,5 C 9,3 C 14,4 C 14,6 C 14,6 C 1,1 C 69 % 66 % 1008,8 hPa 0,0 l/m 15,8 km/h (3 Bft) W-SW 247 0 min 7,9 C 14,6 C 31,9 km/h (5 Bft)
12.03.2020 09:50 13,4 C 9,3 C 14,1 C 14,6 C 14,1 C 1,2 C 68 % 66 % 1008,8 hPa 0,0 l/m 17,7 km/h (3 Bft) S 180 0 min 7,6 C 14,1 C 38,9 km/h (6 Bft)
12.03.2020 09:55 13,4 C 9,3 C 13,9 C 14,1 C 13,5 C 0,7 C 68 % 67 % 1008,8 hPa 0,0 l/m 18,5 km/h (3 Bft) SW 225 0 min 7,6 C 13,5 C 23,3 km/h (4 Bft)
12.03.2020 10:00 13,5 C 9,3 C 13,8 C 14,0 C 13,6 C 0,5 C 68 % 67 % 1009,4 hPa 0,0 l/m 17,9 km/h (3 Bft) S-SW 202 0 min 7,7 C 13,6 C 24,5 km/h (4 Bft)
12.03.2020 10:05 13,6 C 9,2 C 13,6 C 14,3 C 14,2 C 0,7 C 68 % 67 % 1009,4 hPa 0,0 l/m 15,3 km/h (3 Bft) S-SW 202 0 min 7,8 C 14,2 C 22,2 km/h (4 Bft)
12.03.2020 10:10 13,7 C 9,2 C 13,6 C 14,2 C 14,2 C 0,5 C 67 % 68 % 1009,4 hPa 0,0 l/m 15,3 km/h (3 Bft) S-SO 157 0 min 7,7 C 14,2 C 13,8 km/h (3 Bft)
12.03.2020 10:15 13,7 C 9,2 C 13,5 C 14,6 C 14,3 C 0,9 C 68 % 68 % 1009,4 hPa 0,0 l/m 16,3 km/h (3 Bft) S-SW 202 0 min 7,9 C 14,3 C 21,4 km/h (4 Bft)
12.03.2020 10:20 13,8 C 9,2 C 13,5 C 14,7 C 14,4 C 0,9 C 67 % 67 % 1008,8 hPa 0,0 l/m 15,3 km/h (3 Bft) S-SW 202 0 min 7,8 C 14,4 C 19,6 km/h (3 Bft)
12.03.2020 10:25 13,7 C 9,2 C 13,7 C 14,5 C 14,1 C 0,8 C 67 % 67 % 1008,8 hPa 0,0 l/m 16,1 km/h (3 Bft) SW 225 0 min 7,7 C 14,1 C 22,4 km/h (4 Bft)
12.03.2020 10:30 13,9 C 9,2 C 13,8 C 14,5 C 14,2 C 0,6 C 68 % 68 % 1008,8 hPa 0,0 l/m 16,4 km/h (3 Bft) SW 225 0 min 8,1 C 14,2 C 13,8 km/h (3 Bft)
12.03.2020 10:35 13,8 C 9,2 C 13,9 C 14,6 C 14,3 C 0,8 C 67 % 67 % 1008,8 hPa 0,0 l/m 15,8 km/h (3 Bft) S 180 0 min 7,8 C 14,3 C 22,2 km/h (4 Bft)
12.03.2020 10:40 13,8 C 9,2 C 13,9 C 14,3 C 14,3 C 0,5 C 67 % 68 % 1008,9 hPa 0,0 l/m 15,8 km/h (3 Bft) N-NW 337 0 min 7,8 C 14,3 C 10,0 km/h (2 Bft)
12.03.2020 10:45 13,8 C 9,2 C 13,9 C 14,6 C 14,4 C 0,8 C 67 % 68 % 1008,9 hPa 0,0 l/m 14,6 km/h (3 Bft) SW 225 0 min 7,8 C 14,4 C 19,3 km/h (3 Bft)
12.03.2020 10:50 13,9 C 9,2 C 13,8 C 14,6 C 14,3 C 0,7 C 67 % 67 % 1008,9 hPa 0,0 l/m 14,2 km/h (3 Bft) S 180 0 min 7,9 C 14,3 C 24,9 km/h (4 Bft)
12.03.2020 10:55 13,8 C 9,2 C 13,8 C 14,3 C 13,8 C 0,5 C 67 % 68 % 1008,9 hPa 0,0 l/m 15,9 km/h (3 Bft) S-SW 202 0 min 7,8 C 13,8 C 17,7 km/h (3 Bft)
12.03.2020 11:00 13,8 C 9,2 C 13,7 C 14,1 C 13,7 C 0,3 C 67 % 68 % 1009,1 hPa 0,0 l/m 15,9 km/h (3 Bft) SW 225 0 min 7,8 C 13,7 C 27,8 km/h (4 Bft)
12.03.2020 11:05 13,7 C 9,2 C 13,7 C 14,0 C 13,6 C 0,3 C 67 % 68 % 1009,1 hPa 0,0 l/m 17,4 km/h (3 Bft) W-SW 247 0 min 7,7 C 13,6 C 23,7 km/h (4 Bft)
12.03.2020 11:10 13,7 C 9,2 C 13,6 C 14,0 C 13,7 C 0,3 C 68 % 69 % 1009,1 hPa 0,0 l/m 15,6 km/h (3 Bft) W-SW 247 0 min 7,9 C 13,7 C 14,8 km/h (3 Bft)
12.03.2020 11:15 13,7 C 9,3 C 13,5 C 14,0 C 13,6 C 0,3 C 68 % 68 % 1009,1 hPa 0,0 l/m 15,1 km/h (3 Bft) SW 225 0 min 7,9 C 13,6 C 17,5 km/h (3 Bft)
12.03.2020 11:20 13,6 C 9,3 C 13,5 C 13,8 C 13,3 C 0,2 C 68 % 69 % 1009,3 hPa 0,0 l/m 14,8 km/h (3 Bft) S-SW 202 0 min 7,8 C 13,3 C 19,8 km/h (3 Bft)
12.03.2020 11:25 13,7 C 9,3 C 13,5 C 13,8 C 13,6 C 0,1 C 68 % 69 % 1009,3 hPa 0,0 l/m 11,9 km/h (2 Bft) S 180 0 min 7,9 C 13,6 C 21,1 km/h (4 Bft)
12.03.2020 11:30 13,6 C 9,3 C 13,5 C 13,6 C 13,6 C 0,0 C 68 % 70 % 1009,3 hPa 0,0 l/m 12,6 km/h (3 Bft) S-SW 202 0 min 7,8 C 13,6 C 19,5 km/h (3 Bft)
12.03.2020 11:35 13,7 C 9,3 C 13,6 C 14,0 C 13,8 C 0,3 C 69 % 70 % 1009,3 hPa 0,0 l/m 12,9 km/h (3 Bft) S 180 0 min 8,1 C 13,8 C 16,6 km/h (3 Bft)
12.03.2020 11:40 13,6 C 9,3 C 13,7 C 14,1 C 13,9 C 0,5 C 69 % 69 % 1009,3 hPa 0,0 l/m 13,4 km/h (3 Bft) SW 225 0 min 8,0 C 13,9 C 20,3 km/h (4 Bft)
12.03.2020 11:45 13,8 C 9,3 C 14,0 C 14,5 C 14,4 C 0,7 C 69 % 69 % 1009,3 hPa 0,0 l/m 14,0 km/h (3 Bft) S 180 0 min 8,2 C 14,4 C 10,1 km/h (2 Bft)
12.03.2020 11:50 14,1 C 9,3 C 14,6 C 15,4 C 15,6 C 1,3 C 70 % 69 % 1009,3 hPa 0,0 l/m 15,0 km/h (3 Bft) SW 225 0 min 8,7 C 15,6 C 12,9 km/h (3 Bft)
12.03.2020 11:55 14,3 C 9,3 C 14,8 C 16,2 C 16,3 C 1,9 C 70 % 68 % 1009,3 hPa 0,0 l/m 13,7 km/h (3 Bft) S 180 0 min 8,9 C 16,3 C 11,4 km/h (2 Bft)
12.03.2020 12:00 14,1 C 9,3 C 14,5 C 15,9 C 15,4 C 1,8 C 68 % 68 % 1009,1 hPa 0,0 l/m 13,8 km/h (3 Bft) S 180 0 min 8,3 C 15,4 C 13,4 km/h (3 Bft)
12.03.2020 12:05 14,0 C 9,3 C 14,0 C 14,8 C 14,1 C 0,8 C 69 % 70 % 1009,1 hPa 0,0 l/m 14,3 km/h (3 Bft) S-SW 202 0 min 8,4 C 14,1 C 18,2 km/h (3 Bft)
12.03.2020 12:10 13,6 C 9,3 C 13,3 C 13,5 C 12,5 C 0,0 C 71 % 73 % 1009,1 hPa 0,0 l/m 14,8 km/h (3 Bft) S-SW 202 0 min 8,4 C 12,5 C 15,4 km/h (3 Bft)
12.03.2020 12:15 13,2 C 9,5 C 12,3 C 12,8 C 10,8 C 0,0 C 74 % 80 % 1009,1 hPa 0,0 l/m 15,3 km/h (3 Bft) W-SW 247 0 min 8,7 C 10,8 C 13,4 km/h (3 Bft)
12.03.2020 12:20 12,6 C 9,8 C 11,5 C 12,0 C 9,9 C 0,0 C 75 % 82 % 1010,1 hPa 0,7 l/m 13,2 km/h (3 Bft) SW 225 0 min 8,3 C 8,0 C 7,9 km/h (2 Bft)
12.03.2020 12:25 11,6 C 9,9 C 10,9 C 11,0 C 9,2 C 0,0 C 78 % 83 % 1010,1 hPa 0,7 l/m 10,6 km/h (2 Bft) S-SW 202 0 min 7,9 C 7,6 C 20,6 km/h (4 Bft)
12.03.2020 12:30 11,2 C 9,9 C 10,5 C 10,6 C 8,7 C 0,0 C 80 % 84 % 1010,1 hPa 0,0 l/m 11,3 km/h (2 Bft) SW 225 0 min 7,9 C 6,9 C 13,4 km/h (3 Bft)
12.03.2020 12:35 10,9 C 9,9 C 10,2 C 10,2 C 7,6 C 0,0 C 82 % 85 % 1010,1 hPa 1,4 l/m 15,4 km/h (3 Bft) S 180 0 min 7,9 C 4,9 C 17,1 km/h (3 Bft)
12.03.2020 12:40 10,7 C 9,9 C 10,1 C 9,7 C 7,6 C 0,0 C 83 % 86 % 1010,2 hPa 0,0 l/m 15,8 km/h (3 Bft) SW 225 0 min 7,9 C 4,8 C 16,6 km/h (3 Bft)
12.03.2020 12:45 10,7 C 9,9 C 10,0 C 9,9 C 7,9 C 0,0 C 84 % 87 % 1010,2 hPa 0,7 l/m 13,5 km/h (3 Bft) SW 225 0 min 8,1 C 5,5 C 19,5 km/h (3 Bft)
12.03.2020 12:50 10,7 C 9,9 C 10,1 C 10,0 C 8,3 C 0,0 C 85 % 87 % 1010,2 hPa 0,0 l/m 12,2 km/h (2 Bft) W-SW 247 0 min 8,3 C 6,2 C 13,2 km/h (3 Bft)
12.03.2020 12:55 10,7 C 9,9 C 10,4 C 10,2 C 8,9 C 0,0 C 86 % 87 % 1010,2 hPa 0,0 l/m 11,3 km/h (2 Bft) SW 225 0 min 8,5 C 7,1 C 12,1 km/h (2 Bft)
12.03.2020 13:00 10,7 C 10,0 C 10,4 C 10,4 C 9,4 C 0,0 C 86 % 87 % 1010,3 hPa 0,0 l/m 10,3 km/h (2 Bft) S 180 0 min 8,5 C 7,9 C 8,7 km/h (2 Bft)
12.03.2020 13:05 10,7 C 9,9 C 10,1 C 10,4 C 9,3 C 0,0 C 86 % 87 % 1010,3 hPa 0,0 l/m 10,3 km/h (2 Bft) SW 225 0 min 8,5 C 7,7 C 10,1 km/h (2 Bft)
12.03.2020 13:10 10,7 C 9,9 C 10,0 C 10,4 C 9,4 C 0,0 C 86 % 87 % 1010,3 hPa 0,0 l/m 10,3 km/h (2 Bft) W-SW 247 0 min 8,5 C 7,9 C 11,3 km/h (2 Bft)
12.03.2020 13:15 10,8 C 9,9 C 10,1 C 10,5 C 9,5 C 0,0 C 85 % 87 % 1010,3 hPa 0,0 l/m 10,0 km/h (2 Bft) SW 225 0 min 8,4 C 8,0 C 13,5 km/h (3 Bft)
12.03.2020 13:20 10,8 C 9,9 C 10,1 C 10,4 C 9,5 C 0,0 C 85 % 88 % 1010,5 hPa 0,0 l/m 9,8 km/h (2 Bft) S-SW 202 0 min 8,4 C 8,1 C 12,6 km/h (3 Bft)
12.03.2020 13:25 10,8 C 9,9 C 10,0 C 10,4 C 9,2 C 0,0 C 85 % 88 % 1010,5 hPa 0,0 l/m 9,3 km/h (2 Bft) SW 225 0 min 8,4 C 7,8 C 12,2 km/h (2 Bft)
12.03.2020 13:30 10,8 C 9,9 C 10,0 C 10,4 C 9,1 C 0,0 C 85 % 88 % 1010,5 hPa 0,0 l/m 9,3 km/h (2 Bft) W-SW 247 0 min 8,4 C 7,7 C 14,8 km/h (3 Bft)
12.03.2020 13:35 10,9 C 9,8 C 9,9 C 10,3 C 9,1 C 0,0 C 85 % 88 % 1010,5 hPa 0,0 l/m 9,8 km/h (2 Bft) SW 225 0 min 8,5 C 7,6 C 11,1 km/h (2 Bft)
12.03.2020 13:40 10,9 C 9,8 C 9,9 C 10,3 C 9,1 C 0,0 C 84 % 88 % 1010,4 hPa 0,0 l/m 10,6 km/h (2 Bft) SW 225 0 min 8,3 C 7,5 C 20,0 km/h (4 Bft)
12.03.2020 13:45 10,9 C 9,7 C 9,7 C 10,4 C 8,8 C 0,0 C 81 % 86 % 1010,4 hPa 0,0 l/m 11,9 km/h (2 Bft) SW 225 0 min 7,8 C 6,9 C 12,6 km/h (3 Bft)
12.03.2020 13:50 10,8 C 9,7 C 9,4 C 10,2 C 8,3 C 0,0 C 79 % 86 % 1010,4 hPa 0,0 l/m 10,5 km/h (2 Bft) SW 225 0 min 7,3 C 6,5 C 11,7 km/h (2 Bft)
12.03.2020 13:55 9,9 C 9,7 C 8,7 C 9,2 C 7,7 C 0,0 C 78 % 86 % 1010,4 hPa 0,0 l/m 6,6 km/h (2 Bft) W-NW 292 0 min 6,2 C 6,7 C 14,3 km/h (3 Bft)
12.03.2020 14:00 9,5 C 9,7 C 8,4 C 8,7 C 7,1 C 0,0 C 78 % 86 % 1011,4 hPa 0,7 l/m 6,6 km/h (2 Bft) SW 225 0 min 5,9 C 6,0 C 12,2 km/h (2 Bft)
12.03.2020 14:05 8,9 C 9,7 C 8,1 C 8,2 C 6,7 C 0,0 C 80 % 86 % 1011,4 hPa 0,0 l/m 6,6 km/h (2 Bft) W-NW 292 0 min 5,6 C 5,5 C 10,3 km/h (2 Bft)
12.03.2020 14:10 8,7 C 9,8 C 7,9 C 8,0 C 6,6 C 0,0 C 81 % 86 % 1011,4 hPa 0,0 l/m 6,3 km/h (2 Bft) W-SW 247 0 min 5,6 C 5,5 C 12,7 km/h (3 Bft)
12.03.2020 14:15 8,4 C 9,7 C 7,8 C 7,8 C 6,7 C 0,0 C 81 % 87 % 1011,4 hPa 0,7 l/m 5,5 km/h (1 Bft) W-SW 247 0 min 5,3 C 5,8 C 8,0 km/h (2 Bft)
12.03.2020 14:20 8,4 C 9,7 C 7,8 C 7,8 C 6,7 C 0,0 C 82 % 87 % 1011,6 hPa 0,0 l/m 5,8 km/h (2 Bft) S-SW 202 0 min 5,5 C 5,7 C 7,9 km/h (2 Bft)
12.03.2020 14:25 8,4 C 9,7 C 7,8 C 7,7 C 6,3 C 0,0 C 83 % 87 % 1011,6 hPa 0,0 l/m 6,9 km/h (2 Bft) S 180 0 min 5,7 C 5,0 C 9,2 km/h (2 Bft)
12.03.2020 14:30 8,4 C 9,7 C 7,8 C 7,7 C 6,4 C 0,0 C 83 % 88 % 1011,6 hPa 0,0 l/m 7,4 km/h (2 Bft) SW 225 0 min 5,7 C 4,9 C 10,6 km/h (2 Bft)
12.03.2020 14:35 8,5 C 9,6 C 7,9 C 7,9 C 6,8 C 0,0 C 84 % 88 % 1011,6 hPa 0,0 l/m 7,2 km/h (2 Bft) SW 225 0 min 6,0 C 5,5 C 7,6 km/h (2 Bft)
12.03.2020 14:40 8,7 C 9,6 C 7,9 C 8,1 C 7,0 C 0,0 C 83 % 88 % 1011,6 hPa 0,0 l/m 7,6 km/h (2 Bft) SW 225 0 min 6,0 C 5,6 C 7,1 km/h (2 Bft)
12.03.2020 14:45 8,7 C 9,6 C 8,1 C 8,3 C 7,3 C 0,0 C 83 % 87 % 1011,6 hPa 0,0 l/m 8,2 km/h (2 Bft) SW 225 0 min 6,0 C 5,8 C 6,3 km/h (2 Bft)
12.03.2020 14:50 8,7 C 9,5 C 8,0 C 8,4 C 7,4 C 0,0 C 82 % 87 % 1011,6 hPa 0,0 l/m 8,7 km/h (2 Bft) SW 225 0 min 5,8 C 5,8 C 11,6 km/h (2 Bft)
12.03.2020 14:55 8,9 C 9,5 C 8,1 C 8,6 C 7,7 C 0,0 C 81 % 87 % 1011,6 hPa 0,0 l/m 8,7 km/h (2 Bft) SW 225 0 min 5,8 C 6,1 C 9,7 km/h (2 Bft)
12.03.2020 15:00 8,9 C 9,5 C 8,2 C 8,7 C 7,8 C 0,0 C 81 % 86 % 1011,8 hPa 0,0 l/m 9,3 km/h (2 Bft) W-SW 247 0 min 5,8 C 6,1 C 10,5 km/h (2 Bft)
12.03.2020 15:05 9,1 C 9,5 C 8,4 C 8,9 C 8,3 C 0,0 C 81 % 87 % 1011,8 hPa 0,0 l/m 9,8 km/h (2 Bft) SW 225 0 min 6,0 C 6,6 C 16,6 km/h (3 Bft)
12.03.2020 15:10 9,2 C 9,5 C 8,4 C 9,1 C 8,6 C 0,0 C 80 % 86 % 1011,8 hPa 0,0 l/m 10,5 km/h (2 Bft) W-SW 247 0 min 5,9 C 6,9 C 21,1 km/h (4 Bft)
12.03.2020 15:15 9,5 C 9,5 C 8,3 C 9,3 C 8,2 C 0,0 C 76 % 85 % 1011,8 hPa 0,0 l/m 12,7 km/h (3 Bft) SW 225 0 min 5,5 C 6,0 C 13,7 km/h (3 Bft)
12.03.2020 15:20 9,5 C 9,5 C 8,3 C 9,1 C 8,2 C 0,0 C 75 % 85 % 1011,9 hPa 0,0 l/m 12,4 km/h (3 Bft) S-SW 202 0 min 5,3 C 6,1 C 14,6 km/h (3 Bft)
12.03.2020 15:25 9,6 C 9,4 C 8,2 C 9,4 C 8,6 C 0,0 C 73 % 85 % 1011,9 hPa 0,0 l/m 10,3 km/h (2 Bft) W-SW 247 0 min 5,0 C 6,9 C 9,8 km/h (2 Bft)
12.03.2020 15:30 9,6 C 9,4 C 8,3 C 9,4 C 8,7 C 0,0 C 73 % 85 % 1011,9 hPa 0,0 l/m 9,5 km/h (2 Bft) SW 225 0 min 5,0 C 7,2 C 12,4 km/h (3 Bft)
12.03.2020 15:35 9,6 C 9,4 C 8,3 C 9,3 C 8,7 C 0,0 C 71 % 84 % 1011,9 hPa 0,0 l/m 9,7 km/h (2 Bft) SW 225 0 min 4,6 C 7,1 C 16,3 km/h (3 Bft)
12.03.2020 15:40 9,7 C 9,4 C 8,2 C 9,5 C 8,6 C 0,0 C 68 % 84 % 1012,5 hPa 0,0 l/m 10,3 km/h (2 Bft) SW 225 0 min 4,1 C 6,9 C 16,6 km/h (3 Bft)
12.03.2020 15:45 9,7 C 9,4 C 8,0 C 9,5 C 8,4 C 0,0 C 64 % 82 % 1012,5 hPa 0,0 l/m 11,1 km/h (2 Bft) W-SW 247 0 min 3,2 C 6,5 C 17,2 km/h (3 Bft)
12.03.2020 15:50 9,8 C 9,3 C 8,0 C 9,3 C 8,4 C 0,0 C 60 % 82 % 1012,5 hPa 0,0 l/m 11,6 km/h (2 Bft) W-SW 247 0 min 2,4 C 6,4 C 12,2 km/h (2 Bft)
12.03.2020 15:55 9,8 C 9,3 C 8,0 C 9,5 C 8,3 C 0,0 C 58 % 81 % 1012,5 hPa 0,0 l/m 11,7 km/h (2 Bft) W-SW 247 0 min 1,9 C 6,3 C 13,2 km/h (3 Bft)
12.03.2020 16:00 9,7 C 9,3 C 7,9 C 9,5 C 8,6 C 0,0 C 58 % 83 % 1012,5 hPa 0,0 l/m 10,0 km/h (2 Bft) SW 225 0 min 1,8 C 7,0 C 7,1 km/h (2 Bft)
12.03.2020 16:05 9,7 C 9,3 C 7,9 C 9,5 C 8,8 C 0,0 C 57 % 82 % 1012,5 hPa 0,0 l/m 8,9 km/h (2 Bft) W-SW 247 0 min 1,6 C 7,4 C 9,0 km/h (2 Bft)
12.03.2020 16:10 9,7 C 9,3 C 7,9 C 9,6 C 8,9 C 0,0 C 56 % 81 % 1012,5 hPa 0,0 l/m 9,3 km/h (2 Bft) S-SW 202 0 min 1,4 C 7,4 C 18,2 km/h (3 Bft)
12.03.2020 16:15 9,9 C 9,3 C 7,9 C 9,7 C 9,0 C 0,0 C 55 % 81 % 1012,5 hPa 0,0 l/m 9,8 km/h (2 Bft) S 180 0 min 1,3 C 7,5 C 9,2 km/h (2 Bft)
12.03.2020 16:20 9,8 C 9,3 C 8,0 C 9,7 C 9,1 C 0,0 C 54 % 81 % 1012,9 hPa 0,0 l/m 10,3 km/h (2 Bft) S-SW 202 0 min 0,9 C 7,5 C 12,1 km/h (2 Bft)
12.03.2020 16:25 9,9 C 9,3 C 8,1 C 9,8 C 9,4 C 0,0 C 54 % 80 % 1012,9 hPa 0,0 l/m 9,2 km/h (2 Bft) SW 225 0 min 1,0 C 8,1 C 16,3 km/h (3 Bft)
12.03.2020 16:30 9,8 C 9,1 C 8,1 C 9,7 C 9,4 C 0,0 C 54 % 81 % 1012,9 hPa 0,0 l/m 9,2 km/h (2 Bft) W-SW 247 0 min 0,9 C 8,1 C 8,7 km/h (2 Bft)
12.03.2020 16:35 9,9 C 9,1 C 8,1 C 9,9 C 9,6 C 0,0 C 55 % 82 % 1012,9 hPa 0,0 l/m 8,0 km/h (2 Bft) S 180 0 min 1,3 C 8,5 C 10,1 km/h (2 Bft)
12.03.2020 16:40 9,9 C 9,1 C 8,2 C 9,8 C 9,7 C 0,0 C 55 % 83 % 1012,7 hPa 0,0 l/m 6,6 km/h (2 Bft) SW 225 0 min 1,3 C 9,0 C 8,0 km/h (2 Bft)
12.03.2020 16:45 9,9 C 9,1 C 8,3 C 9,8 C 9,7 C 0,0 C 55 % 83 % 1012,7 hPa 0,0 l/m 6,6 km/h (2 Bft) W-SW 247 0 min 1,3 C 9,0 C 6,3 km/h (2 Bft)
12.03.2020 16:50 9,9 C 9,1 C 8,5 C 10,3 C 10,3 C 0,4 C 56 % 83 % 1012,7 hPa 0,0 l/m 6,1 km/h (2 Bft) SW 225 0 min 1,5 C 10,3 C 6,8 km/h (2 Bft)
12.03.2020 16:55 10,1 C 9,1 C 8,7 C 10,9 C 10,9 C 0,8 C 55 % 81 % 1012,7 hPa 0,0 l/m 6,9 km/h (2 Bft) SW 225 0 min 1,5 C 10,9 C 15,4 km/h (3 Bft)
12.03.2020 17:00 10,2 C 9,1 C 8,7 C 10,8 C 10,4 C 0,6 C 54 % 81 % 1012,7 hPa 0,0 l/m 7,7 km/h (2 Bft) S 180 0 min 1,3 C 10,4 C 9,3 km/h (2 Bft)
12.03.2020 17:05 10,1 C 9,0 C 8,6 C 10,5 C 10,1 C 0,4 C 54 % 81 % 1012,7 hPa 0,0 l/m 7,7 km/h (2 Bft) S-SW 202 0 min 1,2 C 10,1 C 9,2 km/h (2 Bft)
12.03.2020 17:10 10,1 C 9,0 C 8,6 C 10,2 C 10,2 C 0,1 C 54 % 81 % 1012,7 hPa 0,0 l/m 7,2 km/h (2 Bft) W-SW 247 0 min 1,2 C 10,2 C 7,2 km/h (2 Bft)
12.03.2020 17:15 10,1 C 9,0 C 8,6 C 10,1 C 10,1 C 0,0 C 54 % 80 % 1012,7 hPa 0,0 l/m 6,9 km/h (2 Bft) SW 225 0 min 1,2 C 10,1 C 6,8 km/h (2 Bft)
12.03.2020 17:20 10,0 C 9,0 C 8,7 C 10,1 C 10,1 C 0,1 C 54 % 81 % 1012,9 hPa 0,0 l/m 6,1 km/h (2 Bft) SW 225 0 min 1,1 C 10,1 C 4,3 km/h (1 Bft)
12.03.2020 17:25 10,0 C 9,0 C 8,6 C 10,3 C 10,3 C 0,3 C 55 % 82 % 1012,9 hPa 0,0 l/m 4,5 km/h (1 Bft) W-SW 247 0 min 1,4 C 10,3 C 6,4 km/h (2 Bft)
12.03.2020 17:30 9,9 C 9,0 C 8,5 C 10,2 C 10,2 C 0,3 C 56 % 82 % 1012,9 hPa 0,0 l/m 4,0 km/h (1 Bft) O 90 0 min 1,5 C 10,2 C 13,4 km/h (3 Bft)
12.03.2020 17:35 9,8 C 9,0 C 8,6 C 9,9 C 9,9 C 0,1 C 54 % 80 % 1012,9 hPa 0,0 l/m 4,3 km/h (1 Bft) SW 225 0 min 0,9 C 9,9 C 4,2 km/h (1 Bft)
12.03.2020 17:40 9,9 C 9,0 C 8,5 C 9,8 C 9,7 C 0,0 C 53 % 78 % 1012,8 hPa 0,0 l/m 4,8 km/h (1 Bft) S 180 0 min 0,8 C 9,5 C 4,5 km/h (1 Bft)
12.03.2020 17:45 9,9 C 8,9 C 8,4 C 9,8 C 9,6 C 0,0 C 50 % 77 % 1012,8 hPa 0,0 l/m 4,7 km/h (1 Bft) W-SW 247 0 min -0,0 C 9,4 C 6,4 km/h (2 Bft)
12.03.2020 17:50 9,9 C 8,9 C 8,4 C 9,7 C 9,4 C 0,0 C 49 % 75 % 1012,8 hPa 0,0 l/m 5,3 km/h (1 Bft) W-SW 247 0 min -0,3 C 9,0 C 10,1 km/h (2 Bft)
12.03.2020 17:55 9,9 C 8,9 C 8,4 C 9,7 C 9,3 C 0,0 C 48 % 75 % 1012,8 hPa 0,0 l/m 5,8 km/h (2 Bft) SW 225 0 min -0,6 C 8,7 C 6,1 km/h (2 Bft)
12.03.2020 18:00 9,9 C 8,9 C 8,4 C 9,8 C 9,7 C 0,0 C 48 % 77 % 1012,9 hPa 0,0 l/m 5,1 km/h (1 Bft) S 180 0 min -0,6 C 9,4 C 3,7 km/h (1 Bft)
12.03.2020 18:05 9,7 C 8,9 C 8,3 C 9,9 C 9,9 C 0,2 C 48 % 78 % 1012,9 hPa 0,0 l/m 3,4 km/h (1 Bft) S-SW 202 0 min -0,8 C 9,9 C 1,6 km/h (1 Bft)
12.03.2020 18:10 9,6 C 8,9 C 8,1 C 9,6 C 9,6 C 0,0 C 49 % 78 % 1012,9 hPa 0,0 l/m 1,8 km/h (1 Bft) N 360 0 min -0,6 C 9,6 C 0,0 km/h (0 Bft)
12.03.2020 18:15 9,5 C 8,9 C 7,7 C 9,4 C 9,1 C 0,0 C 49 % 78 % 1012,9 hPa 0,0 l/m 0,6 km/h (0 Bft) S-SW 202 0 min -0,7 C 9,1 C 3,5 km/h (1 Bft)
12.03.2020 18:20 9,4 C 8,9 C 7,7 C 9,3 C 9,0 C 0,0 C 49 % 76 % 1013,1 hPa 0,0 l/m 1,1 km/h (1 Bft) NW 315 0 min -0,8 C 9,0 C 0,0 km/h (0 Bft)
12.03.2020 18:25 9,2 C 8,9 C 7,4 C 9,0 C 8,5 C 0,0 C 50 % 79 % 1013,1 hPa 0,0 l/m 0,8 km/h (0 Bft) SW 225 0 min -0,7 C 8,5 C 0,0 km/h (0 Bft)
12.03.2020 18:30 9,0 C 8,8 C 7,0 C 8,7 C 8,0 C 0,0 C 51 % 79 % 1013,1 hPa 0,0 l/m 0,0 km/h (0 Bft) O 90 0 min -0,6 C 8,0 C 0,0 km/h (0 Bft)
12.03.2020 18:35 8,7 C 8,8 C 6,6 C 8,2 C 7,2 C 0,0 C 53 % 80 % 1013,1 hPa 0,0 l/m 0,0 km/h (0 Bft) S-SO 157 0 min -0,3 C 7,2 C 0,0 km/h (0 Bft)
12.03.2020 18:40 8,5 C 8,8 C 6,3 C 7,9 C 6,8 C 0,0 C 54 % 80 % 1013,1 hPa 0,0 l/m 0,0 km/h (0 Bft) SW 225 0 min -0,3 C 6,8 C 0,0 km/h (0 Bft)
12.03.2020 18:45 8,1 C 8,9 C 6,2 C 7,5 C 6,3 C 0,0 C 55 % 81 % 1013,1 hPa 0,0 l/m 0,0 km/h (0 Bft) W-SW 247 0 min -0,4 C 6,3 C 0,0 km/h (0 Bft)
12.03.2020 18:50 7,9 C 8,9 C 6,0 C 7,3 C 6,0 C 0,0 C 55 % 81 % 1013,1 hPa 0,0 l/m 0,0 km/h (0 Bft) O-NO 67 0 min -0,6 C 6,0 C 0,0 km/h (0 Bft)
12.03.2020 18:55 7,5 C 8,9 C 5,5 C 6,9 C 5,6 C 0,0 C 57 % 81 % 1013,1 hPa 0,0 l/m 0,2 km/h (0 Bft) O-SO 112 0 min -0,5 C 5,6 C 1,8 km/h (1 Bft)
12.03.2020 19:00 7,2 C 8,9 C 5,2 C 6,6 C 5,5 C 0,0 C 59 % 81 % 1013,3 hPa 0,0 l/m 0,2 km/h (0 Bft) O-NO 67 0 min -0,3 C 5,5 C 0,0 km/h (0 Bft)
12.03.2020 19:05 7,1 C 8,9 C 4,9 C 6,5 C 5,4 C 0,0 C 61 % 82 % 1013,3 hPa 0,0 l/m 0,2 km/h (0 Bft) NO 45 0 min 0,1 C 5,4 C 0,0 km/h (0 Bft)
12.03.2020 19:10 6,8 C 8,8 C 4,8 C 6,2 C 5,1 C 0,0 C 61 % 82 % 1013,3 hPa 0,0 l/m 0,0 km/h (0 Bft) N-NO 22 0 min -0,2 C 5,1 C 0,0 km/h (0 Bft)
12.03.2020 19:15 6,4 C 8,8 C 4,7 C 5,8 C 4,5 C 0,0 C 61 % 82 % 1013,3 hPa 0,0 l/m 0,0 km/h (0 Bft) NW 315 0 min -0,6 C 4,5 C 0,0 km/h (0 Bft)
12.03.2020 19:20 6,3 C 8,8 C 4,6 C 5,7 C 4,4 C 0,0 C 62 % 82 % 1013,4 hPa 0,0 l/m 0,0 km/h (0 Bft) NW 315 0 min -0,4 C 4,4 C 0,0 km/h (0 Bft)
12.03.2020 19:25 6,1 C 8,8 C 4,5 C 5,4 C 4,1 C 0,0 C 63 % 82 % 1013,4 hPa 0,0 l/m 0,0 km/h (0 Bft) O 90 0 min -0,4 C 4,1 C 0,0 km/h (0 Bft)
12.03.2020 19:30 5,8 C 8,8 C 4,3 C 5,3 C 4,2 C 0,0 C 63 % 82 % 1013,4 hPa 0,0 l/m 0,0 km/h (0 Bft) O 90 0 min -0,7 C 4,2 C 0,0 km/h (0 Bft)
12.03.2020 19:35 5,6 C 8,8 C 4,2 C 5,1 C 4,1 C 0,0 C 65 % 83 % 1013,4 hPa 0,0 l/m 0,0 km/h (0 Bft) W 270 0 min -0,4 C 4,1 C 0,0 km/h (0 Bft)
12.03.2020 19:40 5,7 C 8,8 C 4,3 C 5,2 C 4,1 C 0,0 C 66 % 83 % 1013,8 hPa 0,0 l/m 0,0 km/h (0 Bft) W 270 0 min -0,1 C 4,1 C 0,0 km/h (0 Bft)
12.03.2020 19:45 5,5 C 8,8 C 4,3 C 5,0 C 4,0 C 0,0 C 67 % 83 % 1013,8 hPa 0,0 l/m 0,0 km/h (0 Bft) O-SO 112 0 min -0,1 C 4,0 C 0,0 km/h (0 Bft)
12.03.2020 19:50 5,5 C 8,8 C 4,2 C 5,0 C 4,0 C 0,0 C 68 % 83 % 1013,8 hPa 0,0 l/m 0,0 km/h (0 Bft) O-NO 67 0 min 0,1 C 4,0 C 0,0 km/h (0 Bft)
12.03.2020 19:55 5,3 C 8,8 C 3,9 C 4,9 C 4,0 C 0,0 C 69 % 83 % 1013,8 hPa 0,0 l/m 0,0 km/h (0 Bft) SO 135 0 min 0,1 C 4,0 C 0,0 km/h (0 Bft)
12.03.2020 20:00 5,3 C 8,8 C 3,9 C 4,8 C 3,8 C 0,0 C 70 % 83 % 1013,6 hPa 0,0 l/m 0,0 km/h (0 Bft) W-SW 247 0 min 0,3 C 3,8 C 0,0 km/h (0 Bft)
12.03.2020 20:05 5,0 C 8,8 C 3,9 C 4,6 C 3,7 C 0,0 C 71 % 84 % 1013,6 hPa 0,0 l/m 0,0 km/h (0 Bft) W 270 0 min 0,2 C 3,7 C 0,0 km/h (0 Bft)
12.03.2020 20:10 5,0 C 8,8 C 3,9 C 4,6 C 3,8 C 0,0 C 71 % 84 % 1013,6 hPa 0,0 l/m 0,0 km/h (0 Bft) W 270 0 min 0,2 C 3,8 C 0,0 km/h (0 Bft)
12.03.2020 20:15 4,9 C 8,8 C 4,1 C 4,6 C 3,9 C 0,0 C 72 % 84 % 1013,6 hPa 0,0 l/m 0,3 km/h (0 Bft) S-SO 157 0 min 0,3 C 3,9 C 2,3 km/h (1 Bft)
12.03.2020 20:20 4,9 C 8,8 C 4,2 C 4,6 C 4,1 C 0,0 C 72 % 84 % 1013,6 hPa 0,0 l/m 0,3 km/h (0 Bft) O-NO 67 0 min 0,3 C 4,1 C 0,0 km/h (0 Bft)
12.03.2020 20:25 4,9 C 8,7 C 4,3 C 4,8 C 4,5 C 0,0 C 73 % 84 % 1013,6 hPa 0,0 l/m 0,2 km/h (0 Bft) N-NO 22 0 min 0,5 C 4,5 C 0,0 km/h (0 Bft)
12.03.2020 20:30 5,0 C 8,7 C 4,3 C 4,9 C 4,6 C 0,0 C 73 % 84 % 1013,6 hPa 0,0 l/m 0,2 km/h (0 Bft) W-SW 247 0 min 0,6 C 4,6 C 0,0 km/h (0 Bft)
12.03.2020 20:35 5,1 C 8,7 C 4,7 C 5,1 C 5,1 C 0,0 C 74 % 83 % 1013,6 hPa 0,0 l/m 1,0 km/h (0 Bft) S 180 0 min 0,9 C 5,1 C 3,1 km/h (1 Bft)
12.03.2020 20:40 5,2 C 8,7 C 4,7 C 5,3 C 5,3 C 0,1 C 74 % 83 % 1013,2 hPa 0,0 l/m 1,0 km/h (0 Bft) O-SO 112 0 min 1,0 C 5,3 C 0,0 km/h (0 Bft)
12.03.2020 20:45 5,5 C 8,7 C 4,9 C 5,6 C 5,6 C 0,1 C 74 % 83 % 1013,2 hPa 0,0 l/m 1,9 km/h (1 Bft) S 180 0 min 1,2 C 5,6 C 5,0 km/h (1 Bft)
12.03.2020 20:50 5,8 C 8,7 C 5,1 C 6,0 C 6,0 C 0,2 C 74 % 81 % 1013,2 hPa 0,0 l/m 2,4 km/h (1 Bft) S 180 0 min 1,5 C 6,0 C 3,7 km/h (1 Bft)
12.03.2020 20:55 6,0 C 8,7 C 5,3 C 6,0 C 6,0 C 0,0 C 73 % 81 % 1013,2 hPa 0,0 l/m 3,7 km/h (1 Bft) W-SW 247 0 min 1,5 C 6,0 C 3,2 km/h (1 Bft)
12.03.2020 21:00 6,4 C 8,7 C 5,6 C 6,3 C 6,2 C 0,0 C 73 % 80 % 1013,6 hPa 0,0 l/m 3,7 km/h (1 Bft) S 180 0 min 1,9 C 6,2 C 4,0 km/h (1 Bft)
12.03.2020 21:05 6,9 C 8,7 C 6,0 C 6,7 C 6,3 C 0,0 C 71 % 78 % 1013,6 hPa 0,0 l/m 5,0 km/h (1 Bft) S-SO 157 0 min 2,0 C 5,6 C 7,7 km/h (2 Bft)
12.03.2020 21:10 7,1 C 8,7 C 6,1 C 6,8 C 6,3 C 0,0 C 70 % 78 % 1013,6 hPa 0,0 l/m 6,0 km/h (2 Bft) SW 225 0 min 2,0 C 5,2 C 4,7 km/h (1 Bft)
12.03.2020 21:15 7,2 C 8,7 C 6,1 C 7,0 C 6,6 C 0,0 C 68 % 78 % 1013,6 hPa 0,0 l/m 5,5 km/h (1 Bft) W 270 0 min 1,7 C 5,7 C 6,0 km/h (2 Bft)
12.03.2020 21:20 7,3 C 8,6 C 6,2 C 7,1 C 6,7 C 0,0 C 68 % 77 % 1013,5 hPa 0,0 l/m 5,1 km/h (1 Bft) SW 225 0 min 1,8 C 6,0 C 6,0 km/h (2 Bft)
12.03.2020 21:25 7,4 C 8,6 C 6,3 C 7,2 C 6,9 C 0,0 C 68 % 77 % 1013,5 hPa 0,0 l/m 4,8 km/h (1 Bft) SW 225 0 min 1,9 C 6,3 C 6,3 km/h (2 Bft)
12.03.2020 21:30 7,5 C 8,6 C 6,3 C 7,4 C 7,2 C 0,0 C 68 % 77 % 1013,5 hPa 0,0 l/m 4,3 km/h (1 Bft) SW 225 0 min 2,0 C 7,2 C 3,9 km/h (1 Bft)
12.03.2020 21:35 7,5 C 8,6 C 6,2 C 7,4 C 7,3 C 0,0 C 68 % 77 % 1013,5 hPa 0,0 l/m 3,2 km/h (1 Bft) SW 225 0 min 2,0 C 7,3 C 2,7 km/h (1 Bft)
12.03.2020 21:40 7,3 C 8,6 C 6,2 C 7,3 C 7,2 C 0,0 C 68 % 77 % 1013,8 hPa 0,0 l/m 2,7 km/h (1 Bft) W-SW 247 0 min 1,8 C 7,2 C 4,0 km/h (1 Bft)
12.03.2020 21:45 7,3 C 8,5 C 6,2 C 7,2 C 7,0 C 0,0 C 68 % 77 % 1013,8 hPa 0,0 l/m 2,4 km/h (1 Bft) SW 225 0 min 1,8 C 7,0 C 2,6 km/h (1 Bft)
12.03.2020 21:50 7,3 C 8,5 C 6,2 C 7,2 C 7,0 C 0,0 C 68 % 77 % 1013,8 hPa 0,0 l/m 2,1 km/h (1 Bft) S-SW 202 0 min 1,8 C 7,0 C 3,7 km/h (1 Bft)
12.03.2020 21:55 7,3 C 8,5 C 6,2 C 7,2 C 7,0 C 0,0 C 69 % 77 % 1013,8 hPa 0,0 l/m 1,8 km/h (1 Bft) O-SO 112 0 min 2,0 C 7,0 C 4,7 km/h (1 Bft)
12.03.2020 22:00 7,3 C 8,5 C 6,2 C 7,2 C 6,9 C 0,0 C 69 % 77 % 1013,4 hPa 0,0 l/m 1,4 km/h (1 Bft) O 90 0 min 2,0 C 6,9 C 0,0 km/h (0 Bft)
12.03.2020 22:05 7,2 C 8,5 C 6,3 C 7,1 C 6,9 C 0,0 C 69 % 77 % 1013,4 hPa 0,0 l/m 0,8 km/h (0 Bft) O-SO 112 0 min 1,9 C 6,9 C 2,9 km/h (1 Bft)
12.03.2020 22:10 7,3 C 8,5 C 6,4 C 7,2 C 6,9 C 0,0 C 70 % 77 % 1013,4 hPa 0,0 l/m 0,8 km/h (0 Bft) S-SO 157 0 min 2,2 C 6,9 C 4,5 km/h (1 Bft)
12.03.2020 22:15 7,3 C 8,5 C 6,5 C 7,2 C 7,0 C 0,0 C 71 % 77 % 1013,4 hPa 0,0 l/m 1,9 km/h (1 Bft) N-NW 337 0 min 2,4 C 7,0 C 3,9 km/h (1 Bft)
12.03.2020 22:20 7,5 C 8,5 C 6,6 C 7,4 C 7,1 C 0,0 C 71 % 77 % 1013,6 hPa 0,0 l/m 3,4 km/h (1 Bft) SW 225 0 min 2,6 C 7,1 C 10,5 km/h (2 Bft)
12.03.2020 22:25 7,6 C 8,5 C 6,7 C 7,3 C 6,7 C 0,0 C 72 % 78 % 1013,6 hPa 0,0 l/m 4,8 km/h (1 Bft) W 270 0 min 2,9 C 6,1 C 6,3 km/h (2 Bft)
12.03.2020 22:30 7,6 C 8,5 C 6,7 C 7,3 C 6,7 C 0,0 C 72 % 78 % 1013,6 hPa 0,0 l/m 5,8 km/h (2 Bft) W-SW 247 0 min 2,9 C 5,7 C 5,3 km/h (1 Bft)
12.03.2020 22:35 7,7 C 8,5 C 6,8 C 7,4 C 6,7 C 0,0 C 72 % 78 % 1013,6 hPa 0,0 l/m 6,0 km/h (2 Bft) W-SW 247 0 min 3,0 C 5,7 C 6,4 km/h (2 Bft)
12.03.2020 22:40 7,9 C 8,5 C 6,9 C 7,6 C 6,9 C 0,0 C 72 % 77 % 1013,8 hPa 0,0 l/m 5,8 km/h (2 Bft) S-SW 202 0 min 3,2 C 6,0 C 8,0 km/h (2 Bft)
12.03.2020 22:45 7,9 C 8,5 C 7,0 C 7,5 C 6,8 C 0,0 C 71 % 76 % 1013,8 hPa 0,0 l/m 6,4 km/h (2 Bft) O-SO 112 0 min 3,0 C 5,7 C 8,0 km/h (2 Bft)
12.03.2020 22:50 8,0 C 8,5 C 7,0 C 7,6 C 6,8 C 0,0 C 71 % 75 % 1013,8 hPa 0,0 l/m 6,9 km/h (2 Bft) S 180 0 min 3,1 C 5,5 C 8,7 km/h (2 Bft)
12.03.2020 22:55 8,0 C 8,5 C 7,1 C 7,6 C 6,7 C 0,0 C 70 % 75 % 1013,8 hPa 0,0 l/m 7,2 km/h (2 Bft) S 180 0 min 2,9 C 5,3 C 10,1 km/h (2 Bft)
12.03.2020 23:00 8,0 C 8,5 C 7,1 C 7,6 C 6,8 C 0,0 C 69 % 75 % 1013,9 hPa 0,0 l/m 6,8 km/h (2 Bft) SW 225 0 min 2,7 C 5,6 C 12,6 km/h (3 Bft)
12.03.2020 23:05 8,0 C 8,4 C 7,1 C 7,7 C 7,1 C 0,0 C 69 % 75 % 1013,9 hPa 0,0 l/m 6,0 km/h (2 Bft) S-SO 157 0 min 2,7 C 6,1 C 6,4 km/h (2 Bft)
12.03.2020 23:10 8,1 C 8,4 C 7,1 C 7,8 C 7,1 C 0,0 C 69 % 75 % 1013,9 hPa 0,0 l/m 5,3 km/h (1 Bft) S 180 0 min 2,8 C 6,4 C 7,7 km/h (2 Bft)
12.03.2020 23:15 8,1 C 8,4 C 7,1 C 7,8 C 7,3 C 0,0 C 69 % 74 % 1013,9 hPa 0,0 l/m 4,8 km/h (1 Bft) W-SW 247 0 min 2,8 C 6,8 C 5,5 km/h (1 Bft)
12.03.2020 23:20 8,0 C 8,4 C 7,1 C 7,7 C 7,2 C 0,0 C 69 % 74 % 1014,1 hPa 0,0 l/m 5,1 km/h (1 Bft) SW 225 0 min 2,7 C 6,5 C 5,3 km/h (1 Bft)
12.03.2020 23:25 8,0 C 8,4 C 6,9 C 7,6 C 6,8 C 0,0 C 69 % 74 % 1014,1 hPa 0,0 l/m 6,3 km/h (2 Bft) S 180 0 min 2,7 C 5,7 C 11,1 km/h (2 Bft)
12.03.2020 23:30 8,0 C 8,4 C 6,8 C 7,5 C 6,4 C 0,0 C 68 % 74 % 1014,1 hPa 0,0 l/m 6,4 km/h (2 Bft) S 180 0 min 2,5 C 5,2 C 6,6 km/h (2 Bft)
12.03.2020 23:35 8,0 C 8,4 C 6,7 C 7,4 C 6,2 C 0,0 C 68 % 74 % 1014,1 hPa 0,0 l/m 7,4 km/h (2 Bft) SW 225 0 min 2,5 C 4,7 C 11,3 km/h (2 Bft)
12.03.2020 23:40 8,0 C 8,4 C 6,7 C 7,4 C 6,3 C 0,0 C 68 % 74 % 1013,6 hPa 0,0 l/m 6,9 km/h (2 Bft) S-SO 157 0 min 2,5 C 5,0 C 9,7 km/h (2 Bft)
12.03.2020 23:45 8,1 C 8,4 C 6,7 C 7,6 C 6,1 C 0,0 C 66 % 73 % 1013,6 hPa 0,0 l/m 8,0 km/h (2 Bft) SW 225 0 min 2,1 C 4,4 C 7,9 km/h (2 Bft)
12.03.2020 23:50 8,0 C 8,4 C 6,7 C 7,5 C 5,8 C 0,0 C 66 % 72 % 1013,6 hPa 0,0 l/m 9,5 km/h (2 Bft) S-SW 202 0 min 2,0 C 3,7 C 11,4 km/h (2 Bft)
12.03.2020 23:55 7,9 C 8,4 C 6,5 C 7,4 C 5,7 C 0,0 C 65 % 72 % 1013,6 hPa 0,0 l/m 9,0 km/h (2 Bft) SW 225 0 min 1,7 C 3,7 C 7,2 km/h (2 Bft)
_ Min-Zeit 20:15 23:05 19:55 20:05 20:05 00:00 17:55 09:40 08:00 - 18:30 - - - 18:05 20:05 18:10
Minimum _ 4,9 C 8,4 C 3,9 C 4,6 C 3,7 C 0,0 C 48 % 65 % 1008,4 hPa - 0,0 km/h (0 Bft) - - - -0,8 C 3,7 C 0,0 km/h (0 Bft)
_ Max-Zeit 11:55 00:25 09:40 11:55 11:55 07:35 00:00 00:05 23:20 12:35 09:55 - - 07:05 02:25 11:55 09:50
Maximum _ 14,3 C 10,0 C 15,1 C 16,2 C 16,3 C 2,7 C 88 % 91 % 1014,1 hPa 1,4 l/m 18,5 km/h
SW (3 Bft)
- - 5 min 9,8 C 16,3 C 38,9 km/h
S (6 Bft)
Durchschnitt _ 10,4 C 9,3 C 9,6 C 10,4 C 9,9 C 0,2 C 73 % 80 % 1011,4 hPa #4,8 l/m 7,3 km/h (2 Bft) SW - #40 min. 5,7 C 9,5 C 10,0 km/h (2 Bft)
2020 www.wetterstation-wechselburg.de